Regional Weather Roundup
Issued by NWS

Home | Current Version | Previous Version | Text Only | Print | Product List | Glossary On
Versions: 1 2 3 4 5 6 7 8 9 10 11 12 13 14 15 16 17 18 19 20 21 22 23 24 25 26 27 28 29 30 31 32 33 34 35 36 37 38 39 40 41 42 43 44 45 46 47 48 49 50
000
ASUS45 KTFX 291519
RWRMT
MONTANA HOURLY WEATHER ROUNDUP
NATIONAL WEATHER SERVICE GREAT FALLS MT
919 AM MDT TUE JUL 29 2014

NOTE: "FAIR" INDICATES FEW OR NO CLOUDS BELOW 12000 FEET WITH NO
SIGNIFICANT WEATHER AND/OR OBSTRUCTIONS TO VISIBILITY.

* THESE STATIONS ARE NOT UNDER NWS QUALITY CONTROL. THEY DO NOT
   REPORT WEATHER SUCH AS PRECIPITATION OR FOG.

MTZ001>007-043-291600-
WEST OF THE DIVIDE
CITY           SKY/WX    TMP DP  RH WIND       PRES   REMARKS
KALISPELL      SUNNY     70  50  49 N7        30.18R
MISSOULA       SUNNY     66  45  47 CALM      30.21R
BUTTE          SUNNY     64  43  47 CALM      30.32S
MULLAN PASS    SUNNY     72  39  30 E6        30.35R
* LINCOLN      N/A       58  47  67 W2         N/A
* LOOKOUT PASS N/A       68  48  49 SE2        N/A
* POLSON       N/A       63  51  65 N/A        N/A
* RONAN APT    SUNNY     64  52  65 N/A        N/A
* SEELEY LAKE  N/A       60  46  60 SE1        N/A
* THOMP F APT  SUNNY     64  45  50 N3         N/A
* YAAK HILL    N/A       59  49  70 SE4        N/A
$$

MTZ008-052>055-291600-
SOUTHWEST MONTANA
CITY           SKY/WX    TMP DP  RH WIND       PRES   REMARKS
BOZEMAN        PTCLDY    70  45  41 CALM      30.26R
DILLON         SUNNY     66  48  52 SW9       30.29R
W YELLOWSTONE  CLOUDY    57  52  83 CALM      30.40S
* THREE FORKS  PTCLDY    64  64 100 N/A        N/A
* BOULDER HILL N/A       68  42  39 N6         N/A
* MONIDA PASS  N/A       58  45  62 W2         N/A
* RAYNOLDS PAS N/A       56  40  55 S8         N/A
* WHITEHALL    N/A       62  48  60 SE2        N/A
* WISE RIVER   N/A       52  43  72 NW6        N/A
$$

MTZ009>010-012-014-046-048-049-054-291600-
EAST SLOPES AND CENTRAL MONTANA
CITY           SKY/WX    TMP DP  RH WIND       PRES   REMARKS
CUT BANK       SUNNY     68  50  53 CALM      30.23S
GREAT FALLS    SUNNY     72  50  46 VRB3      30.21R
HELENA         PTCLDY    70  46  42 CALM      30.23R
MALMSTROM AFB  PTCLDY    70  52  53 VRB3      30.22R
* CONRAD       SUNNY     66  55  68 N5         N/A
* DEARBORN     N/A       68  48  49 N/A        N/A
* EAST GLACIER N/A       66  48  52 VRB5       N/A
* ROGERS PASS  N/A       69  43  39 SE2        N/A
* SAINT MARY   N/A       56  53  90 NW2        N/A
* SWEET GRASS  N/A       70  46  42 S9         N/A
* WHITE SULPH  N/A       69  44  41 S4         N/A
$$

MTZ011-013-016-021-035-040-045-047-050-051-291600-
NORTH CENTRAL MONTANA
CITY           SKY/WX    TMP DP  RH WIND       PRES   REMARKS
HAVRE          SUNNY     72  52  49 CALM      30.19R
LEWISTOWN      PTCLDY    73  48  41 E10       30.26S
* FORT BENTON  SUNNY     77  48  36 E6        30.19S
* CHESTER      N/A       72  50  46 E5G10      N/A
* DENTON       N/A       77  49  37 SE17G22    N/A
* JUDITH GAP   N/A       69  48  47 S11G16     N/A
* LOMA         N/A       75  49  40 E12        N/A
$$

MTZ017>020-022>027-061-062-291600-
NORTHEAST MONTANA
CITY           SKY/WX    TMP DP  RH WIND       PRES   REMARKS
GLASGOW        SUNNY     75  50  42 E8        30.21S
GLENDIVE       PTSUNNY   72  54  53 W5        30.24S
JORDAN         PTCLDY    77  50  39 E5        30.20S
SIDNEY         PTCLDY    70  55  59 S6        30.22F
WOLF POINT     SUNNY     70  54  57 E7        30.22S
* BEAVER HILL  N/A       70  54  57 S6         N/A
* CIRCLE       N/A       73  56  55 N/A        N/A
* LINDSAY DVD  N/A       69  54  59 W8         N/A
$$

MTZ028>042-056>058-291600-
SOUTHCENTRAL AND SOUTHEAST MONTANA
CITY           SKY/WX    TMP DP  RH WIND       PRES   REMARKS
BAKER          SUNNY     70  54  57 CALM      30.25F
BILLINGS       PTSUNNY   70  52  53 NE10      30.24R
LIVINGSTON     SUNNY     72  43  35 E13       30.29S
MILES CITY     CLOUDY    70  54  57 NE5       30.23S
* LAUREL APT   PTSUNNY   72  48  43 N6         N/A
* ROUNDUP APT  PTSUNNY   73  46  38 NE7        N/A
* ALZADA       N/A       67  52  59 NW1        N/A
* HYSHAM       N/A       67  51  57 NE6        N/A
* LAME DEER    N/A       68  53  59 SE6        N/A
* REED POINT   N/A       70  47  44 W8         N/A
* ROSCOE HILL  N/A       67  42  40 NW4        N/A
$$

REGIONAL REPORTS...DAKOTAS
CITY           SKY/WX    TMP DP  RH WIND       PRES   REMARKS
WILLISTON      SUNNY     70  55  59 CALM      30.21S
DICKINSON      CLOUDY    70  55  59 SW7       30.23S
CROSBY         SUNNY     68  63  84 NW3       30.22S
TIOGA          SUNNY     68  57  68 S3        30.25S
WATFORD CITY   SUNNY     72  55  55 SW3       30.20S
BISMARCK       SUNNY     66  54  65 CALM      30.24F
GRAND FORKS    SUNNY     68  57  68 NW3       30.17F
FARGO          SUNNY     70  57  64 NW5       30.18F
BUFFALO SD     PTCLDY    70  54  57 S7        30.20R
RAPID CITY     CLOUDY    64  54  70 SE3       30.26S
$$

REGIONAL REPORTS...WYOMING/IDAHO/WASHINGTON
CITY           SKY/WX    TMP DP  RH WIND       PRES   REMARKS
GILLETTE       CLOUDY    63  57  81 W7        30.32R
SHERIDAN       CLOUDY    66  59  78 S3        30.27R
YELLOWSTONE LA CLOUDY    55  45  69 CALM      30.47F
SALMON         SUNNY     64  48  56 CALM      30.23F
MULLAN PASS    SUNNY     72  39  30 E6        30.35S
SAND POINT     SUNNY     70  52  53 NE5       30.13S
SPOKANE        SUNNY     73  48  41 E8        30.10S
$$

REGIONAL REPORTS...ALBERTA
CITY           SKY/WX    TMP DP  RH WIND       PRES   REMARKS
CALGARY        N/A       68  48  49 VRB7      30.20R
LETHBRIDGE     N/A       68  54  61 S6        30.19S
MEDICINE HAT   N/A       70  55  59 VRB3      30.18F
EDMONTON       SUNNY     66  61  84 S3        30.14S
WATERTON GATE  N/A       68  52  57 SW7        N/A
CARDSTON       N/A       70  59  68 S2         N/A
MILK RIVER     N/A       73  48  41 S10        N/A
$$

REGIONAL REPORTS...SASKATCHEWAN
CITY           SKY/WX    TMP DP  RH WIND       PRES   REMARKS
SWIFT CURRENT  SUNNY     72  57  59 SE8       30.24R
MOOSE JAW      N/A       70  63  79 NW3       30.24S
REGINA         N/A       72  61  68 N7        30.23S
VAL MARIE      N/A       73  55  53 E8         N/A
ASSINIBOIA     N/A       70  59  68 NE2        N/A
CORONACH       N/A       72  57  59 N7         N/A

$$



USA.gov is the U.S. government's official web portal to all federal, state and local government web resources and services.